Weather History for KTDR - February, 2014

Change the Weather History Date:

Thursday, February 27, 2014

  Actual Average (KECP) Record (KECP)
Temperature  
Mean Temperature 45 °F -  
Max Temperature 53 °F - 77 °F (2011)
Min Temperature 37 °F - 36 °F (2014)
Degree Days  
Heating Degree Days 20    
Cooling Degree Days 0    
Moisture  
Dew Point 29 °F    
Average Humidity 60    
Maximum Humidity 94    
Minimum Humidity 29    
Precipitation  
Precipitation 0.01 in - 0.11 in (2012)
Month to date precipitation  
Year to date precipitation  
Sea Level Pressure  
Sea Level Pressure 29.99 in    
Wind  
Wind Speed 12 mph (North)    
Max Wind Speed 17 mph    
Max Gust Speed 25 mph    
Visibility 11 miles    
Events      
T = Trace of Precipitation, MM = Missing Value Source: NWS Daily Summary

Daily Weather History Graph

Daily Weather History Graph

Search for Another Location

Airport or City:

Trip Planner

Search our weather history database for the weather conditions in past years. The results will help you decide how hot, cold, wet, or windy it might be!

Date:

Astronomy

Feb. 27, 2014 Rise Set
Actual Time 6:10 AM CST 5:39 PM CST
Civil Twilight 5:46 AM CST 6:03 PM CST
Nautical Twilight 5:18 AM CST 6:31 PM CST
Astronomical Twilight 4:50 AM CST 6:59 PM CST
Moon 4:36 AM CST (2/27) 4:08 PM CST (2/27)
Length of Visible Light 12h 17m
Length of Day
11h 29m
Waning Crescent, 4% of the Moon is Illuminated
Feb 27
Waning Crescent
Mar 1
New
Mar 8
First Quarter
Mar 16
Full
Mar 23
Last Quarter

Hourly Weather History & Observations

Time (CST) Temp. Windchill Dew Point Humidity Pressure Visibility Wind Dir Wind Speed Gust Speed Precip Events Conditions
12:55 AM 42.4 °F 34.4 °F 32.5 °F 68% 29.95 in 10.0 mi North 17.3 mph 25.3 mph N/A   Mostly Cloudy
12:56 AM 42.4 °F 34.4 °F 32.5 °F 68% 29.96 in 12.0 mi North 17.3 mph 25.3 mph N/A   Mostly Cloudy
1:55 AM 42.1 °F 35.2 °F 33.8 °F 72% 29.94 in 10.0 mi North 12.7 mph - N/A   Mostly Cloudy
1:56 AM 42.1 °F 35.2 °F 33.8 °F 72% 29.95 in 12.0 mi North 12.7 mph 19.6 mph N/A   Mostly Cloudy
2:55 AM 41.5 °F 35.0 °F 32.9 °F 71% 29.94 in 10.0 mi North 11.5 mph - N/A   Mostly Cloudy
2:56 AM 41.5 °F 35.4 °F 32.9 °F 71% 29.95 in 12.0 mi North 10.4 mph - N/A   Mostly Cloudy
3:55 AM 40.8 °F 32.6 °F 31.3 °F 69% 29.94 in 10.0 mi North 16.1 mph 21.9 mph N/A   Mostly Cloudy
3:56 AM 40.8 °F 32.9 °F 31.3 °F 69% 29.95 in 12.0 mi North 15.0 mph 21.9 mph N/A   Mostly Cloudy
4:55 AM 40.1 °F 31.3 °F 29.3 °F 65% 29.96 in 10.0 mi North 17.3 mph 23.0 mph N/A   Scattered Clouds
4:56 AM 40.1 °F 32.0 °F 29.3 °F 65% 29.97 in 12.0 mi North 15.0 mph 24.2 mph N/A   Scattered Clouds
5:55 AM 39.2 °F 30.5 °F 28.4 °F 65% 29.99 in 10.0 mi North 16.1 mph 24.2 mph N/A   Scattered Clouds
5:56 AM 39.2 °F 30.5 °F 28.4 °F 65% 30.00 in 12.0 mi North 16.1 mph 24.2 mph N/A   Scattered Clouds
6:55 AM 38.7 °F 29.5 °F 28.2 °F 66% 30.01 in 10.0 mi North 17.3 mph - N/A   Partly Cloudy
6:56 AM 38.7 °F 29.8 °F 28.2 °F 66% 30.04 in 12.0 mi North 16.1 mph - N/A   Partly Cloudy
7:55 AM 40.5 °F 32.1 °F 26.1 °F 57% 30.02 in 10.0 mi North 16.1 mph 24.2 mph N/A   Clear
7:56 AM 40.5 °F 31.8 °F 26.1 °F 57% 30.04 in 12.0 mi North 17.3 mph 24.2 mph N/A   Clear
8:55 AM 42.4 °F 34.7 °F 21.7 °F 44% 30.03 in 10.0 mi NNE 16.1 mph 23.0 mph N/A   Clear
8:56 AM 42.4 °F 34.4 °F 21.7 °F 44% 30.04 in 12.0 mi NNE 17.3 mph 23.0 mph N/A   Clear
9:55 AM 43.7 °F 38.6 °F 22.5 °F 43% 30.03 in 10.0 mi NNE 9.2 mph - N/A   Clear
9:56 AM 43.9 °F 38.3 °F 22.3 °F 42% 30.04 in 12.0 mi North 10.4 mph - N/A   Clear
10:55 AM 48.9 °F - 23.2 °F 36% 30.01 in 10.0 mi North 10.4 mph - N/A   Clear
10:56 AM 48.7 °F - 24.6 °F 39% 30.02 in 12.0 mi North 9.2 mph - N/A   Clear
11:55 AM 49.5 °F - 21.6 °F 33% 30.00 in 10.0 mi Variable 5.8 mph - N/A   Clear
11:56 AM 49.5 °F - 21.6 °F 33% 30.01 in 12.0 mi Variable 6.9 mph - N/A   Clear
12:55 PM 50.9 °F - 21.0 °F 31% 29.98 in 10.0 mi Variable 4.6 mph - N/A   Clear
12:56 PM 50.9 °F - 21.0 °F 31% 29.99 in 12.0 mi Variable 3.5 mph - N/A   Clear
1:55 PM 50.9 °F - 19.8 °F 29% 29.98 in - North - - N/A   Unknown
2:55 PM 53.2 °F - 23.0 °F 31% 29.96 in 10.0 mi North - - N/A   Clear
2:56 PM 53.2 °F - 23.0 °F 31% 29.97 in 12.0 mi North - - N/A   Clear
3:55 PM 52.7 °F - 23.4 °F 32% 29.96 in 10.0 mi North - - N/A   Clear
3:56 PM 52.7 °F - 23.4 °F 32% 29.96 in 12.0 mi North - - N/A   Clear
4:55 PM 50.9 °F - 28.8 °F 43% 29.96 in 10.0 mi NW 3.5 mph - N/A   Clear
4:56 PM 50.9 °F - 28.8 °F 43% 29.97 in 12.0 mi NW 3.5 mph - N/A   Clear
5:55 PM 48.4 °F - 30.0 °F 49% 29.97 in 10.0 mi NNW 3.5 mph - N/A   Clear
5:56 PM 48.4 °F - 30.0 °F 49% 29.99 in 12.0 mi NNW 3.5 mph - N/A   Clear
6:55 PM 43.9 °F - 36.5 °F 75% 29.99 in 10.0 mi Calm Calm - N/A   Clear
6:56 PM 43.9 °F - 36.5 °F 75% 30.00 in 12.0 mi Variable 1.2 mph - N/A   Clear
7:55 PM 41.0 °F - 37.2 °F 86% 30.00 in 10.0 mi South 1.2 mph - N/A   Clear
7:56 PM 41.0 °F - 37.2 °F 86% 30.01 in 12.0 mi South 1.2 mph - N/A   Clear
8:55 PM 39.6 °F - 36.9 °F 90% 30.02 in 10.0 mi East 1.2 mph - N/A   Clear
8:56 PM 39.6 °F - 36.9 °F 90% 30.04 in 12.0 mi East 1.2 mph - N/A   Clear
9:55 PM 38.7 °F - 35.1 °F 87% 30.02 in 10.0 mi North - - N/A   Clear
9:56 PM 38.7 °F - 35.1 °F 87% 30.04 in 12.0 mi North - - N/A   Clear
10:55 PM 37.2 °F - 35.6 °F 94% 30.02 in 10.0 mi NNW 1.2 mph - N/A   Clear
10:56 PM 37.2 °F - 35.6 °F 94% 30.04 in 12.0 mi NNW 1.2 mph - N/A   Clear
11:55 PM 37.9 °F - 34.5 °F 87% 30.01 in 10.0 mi North 2.3 mph - N/A   Clear
11:56 PM 37.9 °F - 34.5 °F 87% 30.02 in 12.0 mi North 2.3 mph - N/A   Clear